Vertical_Velocity
-4 -1 4 1 1 -2 6 -10 12 -24 4 -10 -2 0 -2 1 -4 0 0 1 -4 8 -4 3 4 5 -0 4 6 2 0 3 3 1 -0 1 0 1 2 -0 -1 -1 -2 -1
-5 -2 3 2 -1 0 -0 -3 1 2 -10 0 -5 1 -2 -0 4 -2 -2 2 -1 2 6 2 1 -2 2 3 4 5 3 1 2 2 3 2 1 -2 -1 -1 -0 -1 -2 -2
-4 1 -1 1 -3 -0 -2 -0 2 1 -8 -0 -4 -1 -2 -2 -4 -3 3 -1 -3 2 0 -1 -3 -1 6 4 4 1 2 3 -1 1 2 -1 2 -1 0 -1 -2 -1 -2 -2
-2 -1 1 14 -0 1 2 -1 -1 1 -3 1 1 2 0 -3 6 4 -1 -1 1 1 5 4 -0 1 6 8 6 3 4 -1 -0 1 -1 -0 -1 -1 -1 -1 -2 -2 -2 -2
3 1 -9 -5 -0 2 1 -4 2 3 -1 -1 2 -7 1 2 6 0 4 4 4 8 2 2 3 6 8 3 4 3 3 2 1 4 -1 -1 -1 -1 -2 -1 -1 -2 -2 -2
-1 2 0 3 2 -1 0 0 2 1 0 2 -1 0 3 4 7 4 2 3 -1 2 -2 1 -0 3 2 -2 1 -2 -4 1 1 1 -1 -2 -2 -2 -1 -2 -2 -2 -2 -2
-1 -0 -7 -4 0 0 5 -2 1 -1 2 0 -1 5 4 3 1 8 2 0 2 1 -1 -2 1 3 1 2 1 2 0 -0 -0 -0 -1 -3 -3 -0 -1 -2 -2 -3 -2 -0
2 3 -6 0 2 9 6 -2 -2 1 -1 -1 2 2 -1 3 0 2 4 2 5 1 5 7 7 3 0 0 1 0 1 0 -1 -3 -3 -1 -0 -2 -1 -2 -2 0 -0 -0
-3 -10 -3 -0 1 -1 -0 2 1 1 -1 -2 -3 -0 -2 2 -1 -2 -2 -2 -2 -1 -2 0 0 4 -6 -2 0 -0 -3 -4 -2 0 -0 -2 -2 -1 -3 -1 -1 -1 -2 -1
5 -5 -2 -1 0 -2 -1 2 2 -2 2 2 -2 0 0 1 3 0 1 1 1 1 1 -2 1 3 5 -3 -2 -2 -1 0 -0 -1 -1 -1 -1 -1 -2 -3 -1 -1 -1 -1
-6 -4 -0 0 -1 -0 -0 0 -0 -1 0 3 0 -1 -0 4 -0 0 0 -0 2 0 -1 -1 1 0 2 -2 2 -1 -1 -0 -0 -1 -1 -2 -2 -2 1 -1 0 -1 -2 -2
1 3 3 3 2 0 0 0 -2 -0 2 2 2 0 0 0 2 1 0 1 -2 -0 2 -4 0 -1 1 2 1 -0 -0 -1 -2 -3 -2 -1 0 -2 -1 0 -2 -2 -0 -1
-0 -1 -1 0 1 -0 -1 -1 2 1 2 -0 0 -1 0 -1 2 1 0 -0 2 0 -1 -2 2 1 1 0 -0 -2 -3 -2 -1 -0 -0 -0 -0 -1 -2 -3 -7 -6 -4 -2
-0 0 0 0 1 0 -1 -2 -4 5 0 1 1 0 1 -2 1 3 0 0 2 2 -0 -0 1 1 -0 -1 -2 -1 -1 -0 -0 -0 -0 -1 -1 -2 -2 -1 -0 1 4 -1
-1 2 -1 -1 -0 1 1 -1 -4 3 -0 -0 1 -0 3 -1 -1 2 2 2 2 2 0 0 -0 -2 -1 -1 -1 0 1 -0 -1 -0 -1 -2 -2 -1 -0 -0 -0 -1 -2 1
-1 2 1 2 1 0 0 3 -5 2 2 -1 0 -1 -0 -2 -1 2 2 4 0 -3 -1 -1 -1 -2 -1 0 0 -0 -0 -1 -1 -2 -1 -1 -1 -1 -1 -1 -1 -0 0 -1
-1 1 1 0 1 1 -1 3 -2 -1 -0 4 0 1 0 2 1 -1 -1 1 2 -0 -1 -1 -2 -0 0 -1 -1 -1 -1 -2 -0 -1 -3 -2 -0 -0 -0 -1 -1 -2 -3 -1
2 1 1 -0 1 -5 -2 1 -1 -2 -1 1 0 1 1 3 -2 -1 -1 -1 -1 -2 -0 0 0 0 -0 -1 -1 -2 -2 -2 -3 -3 -0 0 -1 -1 -0 -1 -2 -2 -2 -1
1 1 3 0 1 -0 -1 -2 -0 -2 1 1 -0 -0 0 1 -1 -2 -2 -1 0 -0 -1 -0 -1 -1 -2 -1 -2 -2 -2 -2 -1 -1 -1 -1 -1 -1 -1 -1 -1 -0 0 -1
1 3 1 2 2 1 -2 1 2 1 3 1 -1 -0 -2 -0 0 -1 -0 -2 -1 -1 -2 -2 -1 -1 -1 -1 -1 -1 -1 -2 -1 -0 -0 -0 -0 -0 -0 -1 -1 0 0 0
1 1 2 2 4 3 4 5 1 -2 -3 3 -0 -1 -1 -2 -1 -0 -1 -2 -2 0 -1 -1 -1 -1 -1 -1 -1 -2 -2 -0 0 -0 -0 -1 -1 -0 -1 -1 0 -0 -1 -1
1 1 2 1 1 0 2 2 -1 -1 -2 -3 -1 -1 -1 -1 0 -0 2 3 -3 -1 -1 -1 -2 -2 -2 -2 -1 -1 -0 -0 -1 -2 -1 -0 0 0 1 1 0 -0 1 -1
-1 -1 -0 1 2 2 1 2 2 2 -1 1 -0 -0 1 1 1 -1 -5 -3 -1 -1 -0 -1 -1 -1 -1 -1 -1 -0 -1 -1 -1 -1 -0 -1 -1 -1 -1 -2 -1 -1 0 -1
2 1 1 -1 -1 1 0 0 3 5 4 1 4 2 0 -5 -4 -2 -1 0 -0 -1 -1 -1 -0 -1 -1 -0 0 -2 -2 -1 -1 -1 -1 -1 -1 -2 -1 -1 1 -1 -0 0
1 1 1 2 3 0 0 -2 -3 -1 1 0 3 1 0 -1 1 -2 0 -0 -1 -1 -1 -1 -1 -1 -0 -0 -1 -2 -1 -1 -1 -1 -1 -1 -1 -1 -1 0 0 -2 -1 -1
2 3 2 2 1 1 2 1 -0 -2 -3 -4 -2 0 0 0 -1 0 -1 -1 -1 -1 -1 -1 -1 0 0 -1 -2 -2 -1 -1 -1 -0 -1 -1 -0 -1 1 -0 -2 -1 0 0
0 1 1 0 1 3 -0 -2 -3 -4 -0 1 -2 -1 0 -0 -0 0 -0 -0 -0 -1 -2 -1 0 -1 -1 -1 -2 -2 -2 -1 0 -2 -2 -1 -1 0 0 -1 -2 -0 0 -0
Height
1435 1431 1429 1426 1423 1420 1427 1421 1419 1387 1392 1376 1378 1374 1372 1369 1368 1368 1370 1373 1376 1373 1374 1377 1382 1387 1392 1397 1398 1402 1409 1416 1422 1428 1435 1441 1448 1454 1458 1462 1465 1467 1470 1471
1436 1423 1418 1413 1405 1402 1404 1404 1399 1396 1387 1377 1372 1368 1368 1367 1361 1365 1367 1372 1371 1372 1373 1377 1381 1386 1392 1394 1398 1404 1411 1418 1424 1430 1437 1443 1449 1454 1458 1462 1464 1466 1468 1469
1422 1409 1402 1401 1396 1399 1401 1398 1396 1390 1375 1370 1369 1372 1373 1369 1367 1364 1363 1365 1369 1373 1375 1377 1380 1387 1391 1394 1400 1407 1413 1420 1427 1434 1440 1446 1451 1455 1459 1461 1463 1465 1466 1466
1420 1404 1401 1385 1386 1393 1394 1391 1383 1380 1376 1373 1370 1367 1369 1365 1360 1358 1360 1366 1370 1373 1374 1377 1382 1389 1393 1397 1404 1410 1418 1423 1430 1437 1442 1448 1452 1456 1459 1461 1462 1463 1464 1464
1421 1410 1395 1379 1386 1391 1392 1388 1383 1378 1372 1370 1367 1369 1370 1367 1363 1363 1366 1369 1371 1372 1374 1379 1385 1391 1395 1401 1408 1416 1421 1428 1435 1440 1444 1449 1453 1457 1459 1460 1461 1462 1462 1462
1422 1422 1408 1383 1386 1389 1388 1385 1380 1381 1377 1371 1365 1366 1372 1369 1369 1369 1368 1370 1372 1375 1378 1385 1391 1396 1399 1407 1414 1419 1424 1433 1439 1442 1447 1451 1454 1457 1458 1459 1460 1460 1460 1459
1430 1423 1400 1382 1385 1387 1381 1390 1382 1382 1379 1375 1372 1377 1377 1375 1375 1374 1372 1374 1378 1382 1386 1393 1398 1404 1409 1415 1422 1427 1432 1437 1441 1445 1449 1452 1455 1456 1457 1458 1459 1458 1457 1456
1422 1421 1409 1383 1383 1384 1383 1382 1382 1380 1380 1380 1379 1379 1379 1380 1380 1381 1383 1386 1391 1394 1399 1405 1410 1412 1415 1420 1425 1431 1436 1440 1444 1448 1450 1453 1455 1456 1457 1457 1457 1456 1454 1453
1402 1392 1381 1383 1383 1382 1381 1380 1380 1380 1379 1380 1381 1379 1381 1383 1384 1385 1388 1390 1394 1397 1401 1407 1412 1416 1419 1425 1430 1435 1440 1444 1447 1449 1451 1453 1454 1455 1455 1455 1455 1453 1452 1450
1391 1377 1380 1380 1380 1380 1379 1379 1378 1377 1379 1377 1381 1384 1386 1387 1388 1390 1394 1397 1400 1403 1407 1411 1418 1423 1427 1430 1436 1439 1442 1446 1448 1450 1452 1453 1454 1455 1455 1454 1452 1450 1449 1447
1384 1379 1377 1379 1381 1379 1379 1378 1377 1376 1377 1380 1382 1384 1386 1387 1390 1394 1397 1402 1406 1408 1411 1417 1423 1428 1432 1436 1439 1442 1445 1447 1449 1451 1452 1453 1454 1454 1453 1451 1450 1448 1446 1443
1377 1380 1380 1381 1381 1379 1379 1378 1378 1378 1378 1380 1383 1385 1388 1391 1394 1396 1400 1404 1406 1411 1416 1421 1427 1432 1435 1439 1442 1445 1447 1449 1451 1452 1453 1453 1452 1451 1450 1449 1447 1445 1442 1439
1380 1381 1381 1380 1379 1380 1380 1379 1380 1380 1380 1381 1384 1387 1390 1393 1396 1399 1402 1406 1410 1414 1420 1425 1430 1434 1438 1442 1445 1447 1449 1451 1452 1452 1452 1451 1450 1449 1448 1446 1443 1440 1437 1435
1379 1380 1381 1380 1381 1381 1380 1380 1382 1381 1382 1384 1385 1389 1392 1395 1399 1403 1406 1410 1415 1419 1424 1429 1434 1438 1441 1444 1447 1449 1450 1451 1452 1451 1451 1450 1449 1448 1446 1443 1441 1439 1436 1432
1377 1378 1378 1379 1379 1380 1380 1382 1384 1385 1385 1387 1390 1392 1396 1398 1403 1406 1410 1415 1419 1423 1428 1433 1437 1440 1444 1446 1448 1450 1450 1450 1450 1450 1450 1448 1447 1445 1443 1441 1438 1435 1432 1429
1374 1375 1376 1377 1379 1380 1381 1383 1386 1388 1389 1391 1393 1397 1400 1403 1407 1411 1416 1421 1424 1428 1432 1436 1440 1443 1445 1448 1449 1449 1450 1450 1449 1449 1448 1447 1445 1443 1440 1438 1435 1432 1429 1425
1372 1374 1375 1376 1378 1379 1382 1385 1388 1390 1392 1394 1397 1400 1403 1407 1411 1416 1420 1425 1429 1432 1436 1440 1442 1444 1446 1447 1448 1449 1449 1448 1448 1447 1446 1444 1442 1440 1437 1435 1432 1429 1426 1423
1371 1371 1372 1375 1376 1378 1383 1385 1390 1392 1395 1397 1400 1404 1408 1411 1414 1419 1423 1428 1431 1435 1439 1442 1444 1445 1447 1447 1448 1448 1448 1447 1447 1446 1444 1442 1440 1437 1435 1432 1429 1426 1422 1419
1370 1371 1372 1374 1377 1380 1383 1386 1390 1394 1397 1401 1404 1408 1412 1415 1419 1423 1427 1431 1434 1437 1440 1442 1445 1446 1447 1447 1447 1447 1447 1446 1445 1444 1442 1439 1437 1434 1431 1429 1425 1422 1419 1416
1370 1371 1373 1375 1378 1380 1383 1387 1391 1395 1399 1402 1405 1410 1414 1418 1422 1426 1430 1433 1436 1439 1441 1443 1445 1446 1446 1447 1447 1447 1446 1445 1444 1442 1439 1437 1434 1431 1428 1425 1423 1419 1416 1413
1369 1371 1373 1375 1378 1381 1385 1388 1391 1396 1401 1406 1409 1413 1416 1420 1424 1428 1431 1434 1437 1440 1442 1444 1445 1446 1446 1447 1447 1446 1445 1444 1442 1440 1437 1435 1431 1428 1425 1422 1419 1416 1413 1410
1370 1371 1373 1375 1378 1381 1385 1389 1393 1398 1402 1407 1412 1416 1419 1422 1426 1429 1433 1436 1438 1441 1442 1444 1445 1446 1447 1447 1446 1445 1443 1442 1439 1437 1434 1431 1428 1425 1423 1419 1416 1412 1409 1406
1370 1372 1374 1376 1379 1382 1385 1390 1395 1399 1403 1408 1412 1416 1420 1424 1427 1430 1433 1436 1439 1441 1443 1444 1445 1446 1446 1445 1444 1443 1441 1439 1437 1434 1431 1428 1426 1423 1420 1417 1413 1410 1407 1404
1371 1372 1373 1376 1379 1383 1386 1390 1396 1401 1406 1410 1415 1418 1422 1424 1428 1432 1435 1437 1439 1441 1443 1444 1445 1445 1445 1444 1443 1441 1439 1437 1434 1431 1429 1426 1423 1420 1417 1414 1411 1408 1405 1402
1371 1372 1374 1376 1379 1382 1386 1391 1397 1402 1407 1411 1416 1420 1424 1427 1431 1432 1434 1437 1439 1441 1443 1444 1444 1444 1443 1442 1441 1439 1437 1434 1431 1429 1426 1423 1420 1417 1414 1411 1408 1405 1402 1399
1372 1373 1374 1377 1379 1383 1387 1391 1396 1401 1406 1410 1415 1420 1424 1427 1430 1432 1435 1437 1439 1441 1442 1443 1443 1443 1442 1440 1439 1437 1434 1432 1429 1427 1424 1421 1417 1414 1411 1408 1406 1403 1400 1397
1372 1373 1374 1377 1381 1385 1388 1392 1396 1400 1405 1410 1414 1419 1423 1426 1430 1433 1435 1437 1439 1440 1441 1442 1442 1441 1440 1438 1437 1434 1432 1429 1426 1424 1421 1418 1414 1411 1408 1406 1403 1400 1397 1395